When you browse on this site, cookies collect data to enhance your experience and personalize the content and advertising you see.
Visit our Privacy Policy to learn more. By continuing to use the site, you agree to this use of cookies and data.
  • In Latvia
  • List of Countries
  • For 7 days
  • Water Temperature
  • Weather Map
  • Weather Widgets
  • user-avatar
    Login

    Hourly Weather Rovnica

    Today, 25 February, Tuesday

    Time Temperature Precipitation Wind Pressure Humidity
    00:00 -3°C° 0 mm 4 mps 741 mmHg 81%
    01:00 -3°C° 0 mm 4 mps 741 mmHg 82%
    02:00 -2°C° 0 mm 3 mps 741 mmHg 83%
    03:00 -2°C° 0 mm 3 mps 741 mmHg 82%
    04:00 -2°C° 0 mm 3 mps 741 mmHg 82%
    05:00 -2°C° 0 mm 3 mps 741 mmHg 81%
    06:00 -2°C° 0 mm 3 mps 741 mmHg 81%
    07:00 -2°C° 0 mm 3 mps 741 mmHg 82%
    08:00 -2°C° 0 mm 3 mps 741 mmHg 82%
    09:00 -1°C° 0 mm 2 mps 741 mmHg 77%
    10:00 +1°C° 0 mm 2 mps 740 mmHg 72%
    11:00 +1°C° 0 mm 2 mps 740 mmHg 67%
    12:00 +2°C° 0 mm 2 mps 740 mmHg 64%
    13:00 +3°C° 0 mm 1 mps 740 mmHg 61%
    14:00 +3°C° 0 mm 1 mps 740 mmHg 59%
    15:00 +3°C° 0 mm 1 mps 739 mmHg 62%
    16:00 +1°C° 0 mm 2 mps 739 mmHg 66%
    17:00 +1°C° 0 mm 2 mps 738 mmHg 70%
    18:00 -1°C° 0 mm 2 mps 738 mmHg 70%
    19:00 -1°C° 0 mm 3 mps 737 mmHg 70%
    20:00 -1°C° 0 mm 3 mps 737 mmHg 70%
    21:00 -2°C° 0 mm 4 mps 736 mmHg 76%
    22:00 -3°C° 0 mm 4 mps 735 mmHg 81%
    23:00 -3°C° 0 mm 4 mps 734 mmHg 87%

    Tomorrow, 26 February, Wednesday

    Time Temperature Precipitation Wind Pressure Humidity
    00:00 -3°C° 0.6 mm 4 mps 734 mmHg 90%
    01:00 -3°C° 0.6 mm 4 mps 733 mmHg 93%
    02:00 -3°C° 0.6 mm 4 mps 732 mmHg 96%
    03:00 -2°C° 0.6 mm 4 mps 732 mmHg 96%
    04:00 -1°C° 0.6 mm 3 mps 731 mmHg 96%
    05:00 -1°C° 0.6 mm 2 mps 730 mmHg 96%
    06:00 -1°C° 0 mm 3 mps 730 mmHg 95%
    07:00 -1°C° 0 mm 3 mps 730 mmHg 94%
    08:00 -1°C° 0 mm 3 mps 730 mmHg 93%
    09:00 0°C° 0 mm 3 mps 730 mmHg 91%
    10:00 0°C° 0 mm 3 mps 730 mmHg 89%
    11:00 +1°C° 0 mm 3 mps 730 mmHg 86%
    12:00 +1°C° 0 mm 3 mps 731 mmHg 84%
    13:00 +1°C° 0 mm 3 mps 731 mmHg 82%
    14:00 +2°C° 0 mm 3 mps 731 mmHg 79%
    15:00 +2°C° 0.3 mm 2 mps 731 mmHg 84%
    16:00 +1°C° 0.3 mm 2 mps 731 mmHg 89%
    17:00 +1°C° 0.3 mm 2 mps 731 mmHg 94%
    18:00 +1°C° 0.1 mm 1 mps 732 mmHg 94%
    19:00 +1°C° 0.1 mm 1 mps 732 mmHg 94%
    20:00 0°C° 0.1 mm 1 mps 732 mmHg 94%
    21:00 0°C° 0 mm 1 mps 732 mmHg 94%
    22:00 -2°C° 0 mm 2 mps 732 mmHg 94%
    23:00 -2°C° 0 mm 2 mps 733 mmHg 94%

    Day after tomorrow, 27 February, Thursday

    Time Temperature Precipitation Wind Pressure Humidity
    00:00 -2°C° 0 mm 2 mps 733 mmHg 94%
    01:00 -3°C° 0 mm 2 mps 733 mmHg 93%
    02:00 -3°C° 0 mm 2 mps 733 mmHg 93%
    03:00 -3°C° 0 mm 2 mps 733 mmHg 92%
    04:00 -2°C° 0 mm 2 mps 732 mmHg 92%
    05:00 -2°C° 0 mm 2 mps 732 mmHg 91%
    06:00 -2°C° 0 mm 3 mps 732 mmHg 88%
    07:00 -1°C° 0 mm 3 mps 732 mmHg 86%
    08:00 -2°C° 0 mm 4 mps 732 mmHg 83%
    09:00 -2°C° 0.4 mm 4 mps 732 mmHg 87%
    10:00 -1°C° 0.4 mm 5 mps 731 mmHg 90%
    11:00 -1°C° 0.4 mm 5 mps 731 mmHg 94%
    12:00 -1°C° 1.1 mm 4 mps 731 mmHg 95%
    13:00 -1°C° 1.1 mm 4 mps 731 mmHg 96%
    14:00 0°C° 1.1 mm 3 mps 731 mmHg 97%
    15:00 0°C° 0.3 mm 3 mps 731 mmHg 96%
    16:00 0°C° 0.3 mm 3 mps 731 mmHg 95%
    17:00 -1°C° 0.3 mm 2 mps 730 mmHg 93%
    18:00 -1°C° 0.1 mm 3 mps 731 mmHg 94%
    19:00 -1°C° 0.1 mm 3 mps 731 mmHg 94%
    20:00 -2°C° 0.1 mm 3 mps 731 mmHg 95%
    21:00 -2°C° 0 mm 3 mps 731 mmHg 94%
    22:00 -2°C° 0 mm 3 mps 731 mmHg 94%
    23:00 -2°C° 0 mm 3 mps 731 mmHg 93%

    28 February, Friday

    Time Temperature Precipitation Wind Pressure Humidity
    00:00 -2°C° 0.1 mm 3 mps 731 mmHg 94%
    01:00 -2°C° 0.1 mm 3 mps 732 mmHg 94%
    02:00 -2°C° 0.1 mm 3 mps 732 mmHg 94%
    03:00 -2°C° 0.1 mm 3 mps 732 mmHg 95%
    04:00 -2°C° 0.1 mm 3 mps 732 mmHg 95%
    05:00 -2°C° 0.1 mm 3 mps 732 mmHg 96%
    06:00 -2°C° 0.3 mm 3 mps 733 mmHg 94%
    07:00 -3°C° 0.3 mm 4 mps 733 mmHg 92%
    08:00 -3°C° 0.3 mm 4 mps 733 mmHg 90%
    09:00 -2°C° 0 mm 4 mps 734 mmHg 87%
    10:00 -2°C° 0 mm 4 mps 734 mmHg 83%
    11:00 -2°C° 0 mm 4 mps 734 mmHg 79%
    12:00 -2°C° 0.2 mm 4 mps 735 mmHg 83%
    13:00 -2°C° 0.2 mm 4 mps 735 mmHg 88%
    14:00 -2°C° 0.2 mm 4 mps 736 mmHg 92%
    15:00 -2°C° 0.4 mm 4 mps 736 mmHg 92%
    16:00 -2°C° 0.4 mm 4 mps 736 mmHg 92%
    17:00 -2°C° 0.4 mm 5 mps 736 mmHg 91%
    18:00 -2°C° 0.2 mm 5 mps 737 mmHg 90%
    19:00 -3°C° 0.2 mm 4 mps 737 mmHg 89%
    20:00 -3°C° 0.2 mm 4 mps 737 mmHg 88%
    21:00 -3°C° 0 mm 4 mps 738 mmHg 88%
    22:00 -4°C° 0 mm 4 mps 738 mmHg 88%
    23:00 -4°C° 0 mm 4 mps 738 mmHg 89%

    29 February, Saturday

    Time Temperature Precipitation Wind Pressure Humidity
    00:00 -5°C° 0 mm 4 mps 738 mmHg 89%
    01:00 -5°C° 0 mm 4 mps 738 mmHg 89%
    02:00 -5°C° 0 mm 4 mps 738 mmHg 90%
    03:00 -5°C° 0 mm 4 mps 738 mmHg 90%
    04:00 -5°C° 0 mm 4 mps 738 mmHg 90%
    05:00 -4°C° 0 mm 4 mps 738 mmHg 90%
    06:00 -4°C° 0.1 mm 4 mps 738 mmHg 91%
    07:00 -4°C° 0.1 mm 4 mps 739 mmHg 91%
    08:00 -4°C° 0.1 mm 4 mps 739 mmHg 91%
    09:00 -4°C° 0.2 mm 4 mps 739 mmHg 90%
    10:00 -3°C° 0.2 mm 4 mps 740 mmHg 88%
    11:00 -3°C° 0.2 mm 4 mps 740 mmHg 87%
    12:00 -2°C° 0.2 mm 4 mps 740 mmHg 85%
    13:00 -2°C° 0.2 mm 4 mps 740 mmHg 84%
    14:00 -1°C° 0.2 mm 3 mps 741 mmHg 82%
    15:00 -1°C° 0.2 mm 3 mps 741 mmHg 84%
    16:00 -2°C° 0.2 mm 2 mps 741 mmHg 87%
    17:00 -2°C° 0.2 mm 2 mps 741 mmHg 89%
    18:00 -1°C° 0.1 mm 1 mps 742 mmHg 90%
    19:00 -1°C° 0.1 mm 1 mps 742 mmHg 91%
    20:00 -2°C° 0.1 mm 1 mps 742 mmHg 91%
    21:00 -2°C° 0 mm 1 mps 742 mmHg 91%
    22:00 -2°C° 0 mm 1 mps 743 mmHg 92%
    23:00 -4°C° 0 mm 0 mps 743 mmHg 92%

    1 March, Sunday

    Time Temperature Precipitation Wind Pressure Humidity
    00:00 -4°C° 0 mm 0 mps 743 mmHg 92%
    01:00 -3°C° 0 mm 1 mps 743 mmHg 92%
    02:00 -3°C° 0 mm 1 mps 743 mmHg 92%
    03:00 -3°C° 0 mm 1 mps 743 mmHg 92%
    04:00 -3°C° 0 mm 1 mps 743 mmHg 92%
    05:00 -3°C° 0 mm 1 mps 743 mmHg 91%
    06:00 -5°C° 0 mm 2 mps 743 mmHg 92%
    07:00 -5°C° 0 mm 2 mps 744 mmHg 92%
    08:00 -5°C° 0 mm 2 mps 744 mmHg 92%
    09:00 -4°C° 0 mm 3 mps 744 mmHg 88%
    10:00 -2°C° 0 mm 3 mps 744 mmHg 84%
    11:00 -1°C° 0 mm 3 mps 744 mmHg 79%
    12:00 -2°C° 0 mm 4 mps 743 mmHg 78%
    13:00 -2°C° 0 mm 4 mps 743 mmHg 76%
    14:00 -2°C° 0 mm 4 mps 742 mmHg 75%
    15:00 -2°C° 0 mm 4 mps 742 mmHg 75%
    16:00 -2°C° 0 mm 4 mps 742 mmHg 75%
    17:00 -1°C° 0 mm 3 mps 741 mmHg 76%
    18:00 -3°C° 0.2 mm 4 mps 741 mmHg 82%
    19:00 -3°C° 0.2 mm 4 mps 740 mmHg 88%
    20:00 -4°C° 0.2 mm 5 mps 740 mmHg 94%
    21:00 -4°C° 0.5 mm 5 mps 740 mmHg 95%
    22:00 -3°C° 0.5 mm 4 mps 740 mmHg 95%
    23:00 -2°C° 0.5 mm 4 mps 739 mmHg 96%
    Show more